Gene Autry, OK

2:31 AM CST on February 28, 2017 (GMT -0600)
Ardmore Municipal

Weather History for KADM - November, 2013

Change the Weather History Date:

Wednesday, November 6, 2013

  Actual Average Record
Temperature  
Mean Temperature 52 °F -  
Max Temperature 68 °F 63 °F 78 °F (1999)
Min Temperature 35 °F 45 °F 30 °F (2010)
Degree Days  
Heating Degree Days 13    
Growing Degree Days 2 (Base 50)    
Moisture  
Dew Point 47 °F    
Average Humidity 88    
Maximum Humidity 100    
Minimum Humidity 48    
Precipitation  
Precipitation 0.66 in - - ()
Sea Level Pressure  
Sea Level Pressure 30.16 in    
Wind  
Wind Speed 12 mph (NNW)    
Max Wind Speed 21 mph    
Max Gust Speed 34 mph    
Visibility 9 miles    
Events Rain    
Averages and records for this station are not official NWS values.
T = Trace of Precipitation, MM = Missing Value Source: NWS Daily Summary

Daily Weather History Graph

Daily Weather History Graph

Search for Another Location

Airport or City:

Trip Planner

Search our weather history database for the weather conditions in past years. The results will help you decide how hot, cold, wet, or windy it might be!

Date:

Astronomy

Nov. 06, 2013 Rise Set
Actual Time 6:52 AM CST 5:30 PM CST
Civil Twilight 6:26 AM CST 5:56 PM CST
Nautical Twilight 5:56 AM CST 6:26 PM CST
Astronomical Twilight 5:27 AM CST 6:55 PM CST
Moon 10:05 AM CST (11/6) 8:39 PM CST (11/6)
Length of Visible Light 11h 29m
Length of Day
10h 37m
Waxing Crescent, 14% of the Moon is Illuminated
Nov 6
Waxing Crescent
Nov 9
First Quarter
Nov 17
Full
Nov 25
Last Quarter
Dec 2
New

Hourly Weather History & Observations

Time (CST) Temp. Windchill Dew Point Humidity Pressure Visibility Wind Dir Wind Speed Gust Speed Precip Events Conditions
12:15 AM 68.4 °F - 67.5 °F 97% 29.94 in 10.0 mi SSW 9.2 mph 18.4 mph N/A   Overcast
12:35 AM 68.5 °F - 67.5 °F 96% 29.94 in 10.0 mi SSW 13.8 mph 17.3 mph N/A   Overcast
12:55 AM 68.5 °F - 67.5 °F 96% 29.95 in 10.0 mi SSW 9.2 mph - N/A   Overcast
1:15 AM 54.7 °F - 53.6 °F 96% 29.98 in 7.0 mi North 20.7 mph 34.5 mph 0.02 in Rain Heavy Rain
1:35 AM 52.9 °F - 52.7 °F 99% 29.99 in 2.5 mi North 17.3 mph 21.9 mph 0.23 in Rain Heavy Rain
1:55 AM 52.7 °F - 52.2 °F 98% 30.01 in 1.2 mi North 13.8 mph - 0.55 in Rain Heavy Rain
2:15 AM 51.8 °F - 51.3 °F 98% 30.05 in 5.0 mi NW 13.8 mph 18.4 mph 0.09 in Rain Heavy Rain
2:35 AM 50.7 °F - 49.8 °F 97% 30.03 in 10.0 mi North 17.3 mph 23.0 mph 0.11 in Rain Light Rain
2:55 AM 50.4 °F - 49.6 °F 97% 30.05 in 10.0 mi NNW 13.8 mph 25.3 mph 0.11 in   Overcast
3:15 AM 49.5 °F - 48.2 °F 95% 30.05 in 10.0 mi North 19.6 mph 26.5 mph N/A   Mostly Cloudy
3:35 AM 49.1 °F - 47.5 °F 94% 30.05 in 10.0 mi North 13.8 mph 25.3 mph N/A   Scattered Clouds
3:55 AM 48.7 °F - 47.3 °F 95% 30.05 in 10.0 mi North 11.5 mph 24.2 mph N/A   Mostly Cloudy
4:15 AM 48.6 °F - 47.3 °F 95% 30.06 in 10.0 mi NNW 16.1 mph 21.9 mph N/A   Overcast
4:35 AM 48.6 °F - 47.3 °F 95% 30.07 in 10.0 mi North 15.0 mph 20.7 mph N/A   Overcast
4:55 AM 48.4 °F - 46.4 °F 93% 30.09 in 10.0 mi North 16.1 mph 26.5 mph N/A   Overcast
5:15 AM 48.2 °F - 46.4 °F 93% 30.10 in 10.0 mi North 11.5 mph 18.4 mph N/A   Overcast
5:35 AM 47.7 °F - 45.5 °F 92% 30.11 in 10.0 mi North 17.3 mph 20.7 mph N/A   Overcast
7:55 AM 44.6 °F 37.4 °F 42.8 °F 93% 30.21 in 10.0 mi NNW 16.1 mph 20.7 mph N/A   Overcast
8:55 AM 44.6 °F - 41.0 °F 87% 30.24 in 10.0 mi North - - N/A   Unknown
9:55 AM 44.6 °F 37.8 °F 41.0 °F 87% 30.25 in 10.0 mi NNW 15.0 mph - N/A   Unknown
10:55 AM 48.2 °F - 42.8 °F 82% 30.26 in 10.0 mi North 10.4 mph 19.6 mph N/A   Unknown
11:55 AM 53.6 °F - 42.8 °F 67% 30.27 in 10.0 mi NNW 12.7 mph - N/A   Unknown
12:55 PM 57.2 °F - 42.8 °F 59% 30.25 in 10.0 mi North 12.7 mph 17.3 mph N/A   Unknown
1:55 PM 59.0 °F - 57.2 °F 94% 30.25 in 10.0 mi North - - N/A   Unknown
2:55 PM 59.0 °F - 39.2 °F 48% 30.25 in 10.0 mi North 12.7 mph 19.6 mph N/A   Clear
3:55 PM 59.0 °F - 39.2 °F 48% 30.27 in 10.0 mi North 5.8 mph 17.3 mph N/A   Clear
4:55 PM 55.4 °F - 39.2 °F 54% 30.28 in 10.0 mi North 5.8 mph - N/A   Clear
5:55 PM 50.0 °F - 39.2 °F 66% 30.31 in 10.0 mi North 4.6 mph - N/A   Clear
10:35 PM 37.9 °F - 37.9 °F 100% 30.38 in 10.0 mi Calm Calm - N/A   Clear
10:55 PM 36.7 °F 34.1 °F 36.1 °F 98% 30.38 in 10.0 mi North 3.5 mph - N/A   Clear
11:15 PM 36.7 °F - 36.5 °F 99% 30.39 in 10.0 mi Calm Calm - N/A   Clear
11:35 PM 37.4 °F - 36.5 °F 97% 30.39 in 10.0 mi Calm Calm - N/A   Clear
11:55 PM 35.8 °F - 35.1 °F 97% 30.39 in 10.0 mi Calm Calm - N/A   Clear